Location: Heiligenberg
(48.5381°N, 7.3897°E)
Time: 23:58:01
(UTC+00:00)

USA 267 - Pass Details

Date: 26 May 2022
Orbit: 1101 x 1106 km, 123.0° (Epoch: 28 June)

Event Time Altitude Azimuth Distance (km) Brightness Sun altitude
Exits shadow 01:02:05 24° 220° (SW) 2,090 4.2 -17.2°
Maximum altitude 01:03:05 25° 234° (SW) 2,051 4.2 -17.2°
Drops below altitude 10° 01:08:19 10° 287° (WNW) 2,963 5.4 -16.8°
Sets 01:11:20 0° 301° (WNW) 3,925 6.2 -16.6°
